Flag for Russia Weather past 2 weeks in Murmansk, Russia

Now
32 °F

Snow showers. Partly sunny.


Feels Like: 29 °F
Forecast: 33 / 42 °F
Wind: 3 mph from Northwest

Location: Murmansk Airport

Current Time: Sep 22, 2014 at 6:55:41 PM

Latest Report: Sep 22, 2014 at 6:00 PM


Visibility: 1 mi

Pressure: 29.95 "Hg

Humidity: 93%

Dew point: 30 °F

Location of MurmanskLocation

Historic Weather in Murmansk — Graph

°F

Murmansk temperature yesterday

Maximum temperature yesterday: 39 °F (at 12:00 AM)
Minimum temperature yesterday: 30 °F (at 3:00 AM)
Average temperature yesterday: 34 °F

Past Weeks' High & Low Weather Summary

 TemperatureHumidityPressure
High63 °F (Sep 11, 1:30 PM)100% (Sep 13, 3:00 AM)30.39 "Hg (Sep 13, 3:00 AM)
Low23 °F (Sep 20, 6:30 AM)38% (Sep 14, 3:00 PM)29.65 "Hg (Sep 20, 10:30 PM)
Average45 °F76%30.02 "Hg
* Reported Sep 7 5:00 PM — Sep 22 5:00 PM, Murmansk, Weather by CustomWeather, © 2014

Note: Actual official high and low records may vary slightly from our data, if they occured in-between our weather recording intervals... More about our weather records

Advertising

Murmansk weather history for previous 24 hours

 ConditionsComfort  
Time TempWeatherWind HumidityBarometerVisibility
5:00 PM
Sep 22
37 °FSnow flurries. Partly sunny.6 mph70%29.92 "Hg3 mi
4:30 PM36 °FSnow flurries. Partly sunny.10 mph81%29.92 "Hg6 mi
4:00 PM36 °FSnow flurries. Partly sunny.10 mph81%29.89 "Hg5 mi
3:30 PM36 °FPartly sunny.10 mph75%29.89 "HgN/A
3:00 PM37 °FPartly sunny.8 mph70%29.89 "HgN/A
2:30 PM34 °FSnow flurries. Partly sunny.6 mph87%29.89 "Hg4 mi
2:00 PM36 °FPartly sunny.6 mph70%29.86 "HgN/A
1:30 PM36 °FPartly sunny.6 mph70%29.86 "HgN/A
1:00 PM36 °FPartly sunny.8 mph70%29.86 "HgN/A
12:30 PM36 °FPartly sunny.8 mph70%29.86 "HgN/A
12:00 PM34 °FPartly sunny.6 mph75%29.86 "HgN/A
11:30 AM34 °FScattered clouds.6 mph70%29.86 "HgN/A
11:00 AM32 °FScattered clouds.8 mph75%29.86 "HgN/A
10:30 AM32 °FScattered clouds.3 mph75%29.86 "HgN/A
10:00 AM30 °FScattered clouds.3 mph80%29.83 "HgN/A
9:30 AM28 °FSunny.8 mph86%29.83 "Hg10 mi
9:00 AM28 °FSunny.3 mph86%29.83 "Hg10 mi
8:30 AM27 °FSunny.3 mph86%29.83 "Hg10 mi
8:00 AM27 °FClear.1 mph86%29.83 "Hg10 mi
7:30 AM27 °FClear.3 mph86%29.83 "Hg10 mi
7:00 AM27 °FClear.1 mph86%29.83 "Hg10 mi
6:30 AM27 °FClear.No wind86%29.83 "Hg10 mi
6:00 AM28 °FClear.1 mph80%29.83 "Hg10 mi
5:30 AM28 °FClear.3 mph86%29.83 "Hg10 mi
5:00 AM28 °FClear.6 mph86%29.80 "Hg10 mi
4:00 AM28 °FClear.6 mph86%29.80 "Hg10 mi
3:30 AM30 °FClear.8 mph80%29.80 "Hg10 mi
3:00 AM30 °FPassing clouds.6 mph80%29.80 "HgN/A
2:30 AM30 °FPassing clouds.3 mph80%29.77 "HgN/A
2:00 AM30 °FPassing clouds.No wind80%29.77 "HgN/A
1:30 AM32 °FPassing clouds.3 mph75%29.77 "HgN/A
1:00 AM32 °FPassing clouds.3 mph75%29.77 "HgN/A
12:30 AM32 °FPassing clouds.3 mph75%29.77 "HgN/A
12:00 AM32 °FPassing clouds.3 mph75%29.77 "HgN/A
11:30 PM
Sep 21
32 °FPartly cloudy.3 mph75%29.74 "HgN/A
11:00 PM32 °FPassing clouds.3 mph75%29.74 "HgN/A
10:00 PM32 °FPassing clouds.No wind75%29.74 "HgN/A
9:30 PM32 °FPassing clouds.No wind80%29.74 "HgN/A
9:00 PM32 °FPartly cloudy.1 mph80%29.74 "HgN/A
8:30 PM36 °FBroken clouds.3 mph70%29.74 "HgN/A
8:00 PM36 °FBroken clouds.1 mph70%29.74 "HgN/A
7:30 PM37 °FBroken clouds.6 mph60%29.71 "HgN/A
7:00 PM39 °FBroken clouds.1 mph70%29.71 "HgN/A
6:00 PM39 °FBroken clouds.3 mph75%29.68 "HgN/A
Weather by CustomWeather, © 2014

See weather overviewHow to use our weather pages